Terminal Aerodrome Forecast
Issued by NWS Boston, MA

Home | Current Version | Previous Version | Text Only | Print | Product List | Glossary On
Versions: 1 2 3 4 5 6 7 8 9 10 11 12 13 14 15 16 17 18 19 20 21 22 23 24 25 26 27 28 29 30 31 32 33 34 35 36 37 38 39 40 41
000
FTUS41 KBOX 302331
TAFPVD
TAF
KPVD 302331Z 3100/3124 19008KT P6SM SCT040 BKN150
     FM311000 20009KT P6SM BKN040
     FM311400 21010KT P6SM BKN030
     FM311600 21011KT P6SM BKN035
     FM312100 21011KT P6SM BKN025=

USA.gov is the U.S. government's official web portal to all federal, state and local government web resources and services.